Change the Weather History Date:

Thursday, October 18, 2012

  Actual Average (KDLZ) Record (KDLZ)
Temperature  
Mean Temperature 54 °F -  
Max Temperature 64 °F 62 °F 86 °F (1938)
Min Temperature 46 °F 38 °F 23 °F (1976)
Degree Days  
Heating Degree Days 10    
Growing Degree Days 4 (Base 50)    
Moisture  
Dew Point 40 °F    
Average Humidity 60    
Maximum Humidity 87    
Minimum Humidity 32    
Precipitation  
Precipitation 0.05 in - - ()
Sea Level Pressure  
Sea Level Pressure 29.61 in    
Wind  
Wind Speed 15 mph (SSW)    
Max Wind Speed 21 mph    
Max Gust Speed 36 mph    
Visibility 9 miles    
Events Rain    
Averages and records for this station are not official NWS values.
T = Trace of Precipitation, MM = Missing Value Source: NWS Daily Summary

Daily Weather History Graph

Daily Weather History Graph

Search for Another Location

Airport or City:

Trip Planner

Search our weather history database for the weather conditions in past years. The results will help you decide how hot, cold, wet, or windy it might be!

Date:

Astronomy

Oct. 18, 2012 Rise Set
Actual Time 7:47 AM EDT 6:46 PM EDT
Civil Twilight 7:19 AM EDT 7:14 PM EDT
Nautical Twilight 6:47 AM EDT 7:46 PM EDT
Astronomical Twilight 6:15 AM EDT 8:17 PM EDT
Moon 11:28 AM EDT (10/18) 9:18 PM EDT (10/18)
Length of Visible Light 11h 55m
Length of Day
10h 59m
Waxing Crescent, 14% of the Moon is Illuminated
Oct 18
Waxing Crescent
Oct 21
First Quarter
Oct 29
Full
Nov 6
Last Quarter
Nov 13
New

Hourly Weather History & Observations

Time (EDT) Temp. Windchill Dew Point Humidity Pressure Visibility Wind Dir Wind Speed Gust Speed Precip Events Conditions
12:53 AM 63.0 °F - 46.9 °F 56% 29.60 in 10.0 mi SSE 16.1 mph - N/A   Scattered Clouds
1:53 AM 63.0 °F - 45.0 °F 52% 29.57 in 10.0 mi South 16.1 mph 25.3 mph N/A   Mostly Cloudy
2:53 AM 61.0 °F - 46.0 °F 58% 29.57 in 10.0 mi SSE 15.0 mph 23.0 mph N/A   Clear
3:53 AM 60.1 °F - 44.1 °F 55% 29.55 in 10.0 mi South 15.0 mph 21.9 mph N/A   Clear
4:53 AM 59.0 °F - 44.1 °F 58% 29.52 in 10.0 mi SSE 15.0 mph 24.2 mph N/A   Clear
5:53 AM 60.1 °F - 43.0 °F 53% 29.51 in 10.0 mi South 18.4 mph 28.8 mph N/A   Partly Cloudy
6:53 AM 60.1 °F - 44.1 °F 55% 29.50 in 10.0 mi South 17.3 mph 27.6 mph N/A   Mostly Cloudy
7:53 AM 59.0 °F - 45.0 °F 60% 29.50 in 10.0 mi South 18.4 mph 26.5 mph 0.00 in Rain Light Rain
8:53 AM 59.0 °F - 46.0 °F 62% 29.52 in 10.0 mi South 19.6 mph 28.8 mph 0.00 in   Mostly Cloudy
9:53 AM 51.1 °F - 46.9 °F 86% 29.59 in 3.0 mi WSW 20.7 mph 35.7 mph 0.00 in Rain Heavy Rain
9:55 AM 51.8 °F - 46.4 °F 82% 29.59 in 1.8 mi West 18.4 mph 31.1 mph 0.00 in Rain Heavy Rain
10:03 AM 50.0 °F - 46.4 °F 87% 29.58 in 1.0 mi West 12.7 mph 25.3 mph N/A Rain Rain
10:05 AM 50.0 °F - 46.4 °F 87% 29.59 in 1.5 mi West 15.0 mph - N/A Rain Rain
10:07 AM 50.0 °F - 46.4 °F 87% 29.59 in 3.0 mi WSW 11.5 mph 21.9 mph N/A Rain Light Rain
10:53 AM 52.0 °F - 48.0 °F 86% 29.60 in 10.0 mi SW 11.5 mph 19.6 mph N/A   Mostly Cloudy
11:53 AM 57.0 °F - 45.0 °F 64% 29.61 in 10.0 mi SW 20.7 mph 28.8 mph N/A   Mostly Cloudy
12:53 PM 55.0 °F - 43.0 °F 64% 29.64 in 10.0 mi West 20.7 mph 28.8 mph 0.01 in   Mostly Cloudy
1:53 PM 59.0 °F - 37.9 °F 46% 29.64 in 10.0 mi WSW 18.4 mph 24.2 mph 0.01 in   Clear
2:53 PM 60.1 °F - 33.1 °F 36% 29.64 in 10.0 mi SW 12.7 mph 21.9 mph N/A   Clear
3:53 PM 59.0 °F - 32.0 °F 36% 29.65 in 10.0 mi SW 15.0 mph 26.5 mph 0.01 in   Partly Cloudy
4:53 PM 60.1 °F - 30.0 °F 32% 29.65 in 10.0 mi SW 19.6 mph 24.2 mph N/A   Clear
5:53 PM 57.9 °F - 30.0 °F 35% 29.66 in 10.0 mi SW 13.8 mph 23.0 mph 0.01 in   Clear
6:53 PM 54.0 °F - 32.0 °F 43% 29.69 in 10.0 mi SSW 6.9 mph - N/A   Clear
7:53 PM 48.9 °F - 33.1 °F 54% 29.70 in 10.0 mi SSW 8.1 mph - N/A   Clear
8:53 PM 46.9 °F - 33.1 °F 59% 29.73 in 10.0 mi South 6.9 mph - N/A   Clear
9:53 PM 46.9 °F - 32.0 °F 56% 29.74 in 10.0 mi South 6.9 mph - 0.01 in   Clear
10:53 PM 46.9 °F - 33.1 °F 59% 29.73 in 10.0 mi SSE 8.1 mph - N/A   Clear
11:53 PM 46.0 °F 41.9 °F 33.1 °F 61% 29.72 in 10.0 mi SSE 8.1 mph - N/A   Clear